Weather History for Perryton, TX

Change the Weather History Date:

Tuesday, January 21, 2014

  Actual Average Record
Temperature  
Mean Temperature 39 °F -  
Max Temperature 63 °F 46 °F 81 °F (1986)
Min Temperature 15 °F 19 °F -13 °F (1984)
Degree Days  
Heating Degree Days 26    
Moisture  
Dew Point 15 °F    
Average Humidity 48    
Maximum Humidity 82    
Minimum Humidity 15    
Precipitation  
Precipitation 0.00 in - - ()
Sea Level Pressure  
Sea Level Pressure 30.23 in    
Wind  
Wind Speed 10 mph (South)    
Max Wind Speed 23 mph    
Max Gust Speed 29 mph    
Visibility 10 miles    
Events      
Averages and records for this station are not official NWS values.
T = Trace of Precipitation, MM = Missing Value Source: NWS Daily Summary

Daily Weather History Graph

Daily Weather History Graph

Search for Another Location

Airport:

Trip Planner

Search our weather history database for the weather conditions in past years. The results will help you decide how hot, cold, wet, or windy it might be!

Date:

Astronomy

Jan. 21, 2014 Rise Set
Actual Time 7:51 AM CST 5:57 PM CST
Civil Twilight 7:23 AM CST 6:25 PM CST
Nautical Twilight 6:52 AM CST 6:56 PM CST
Astronomical Twilight 6:21 AM CST 7:27 PM CST
Moon 11:21 PM CST (1/21) 10:32 AM CST (1/21)
Length of Visible Light 11h 01m
Length of Day
10h 06m
Waning Gibbous, 74% of the Moon is Illuminated
Jan 21
Waning Gibbous
Jan 23
Last Quarter
Jan 30
New
Feb 6
First Quarter
Feb 14
Full

Hourly Weather History & Observations

Time (CST) Temp. Windchill Dew Point Humidity Pressure Visibility Wind Dir Wind Speed Gust Speed Precip Events Conditions
12:15 AM 34.5 °F 25.7 °F 14.2 °F 43% 30.39 in 5.0 mi North 12.7 mph - N/A   Scattered Clouds
12:35 AM 33.6 °F 25.0 °F 14.2 °F 45% 30.39 in 5.0 mi North 11.5 mph - N/A   Clear
12:55 AM 34.7 °F 25.1 °F 14.2 °F 43% 30.39 in 7.0 mi North 15.0 mph - N/A   Clear
1:15 AM 32.5 °F 24.2 °F 14.0 °F 46% 30.39 in 7.0 mi NNW 10.4 mph - N/A   Clear
1:35 AM 29.5 °F 21.1 °F 13.6 °F 52% 30.40 in 7.0 mi North 9.2 mph - N/A   Clear
1:55 AM 28.8 °F 20.9 °F 14.0 °F 54% 30.40 in 7.0 mi North 8.1 mph - N/A   Clear
2:15 AM 27.0 °F 18.0 °F 13.6 °F 57% 30.41 in 7.0 mi North 9.2 mph - N/A   Clear
2:35 AM 23.9 °F 15.0 °F 12.2 °F 61% 30.41 in 7.0 mi North 8.1 mph - N/A   Clear
2:55 AM 23.5 °F 16.4 °F 12.6 °F 63% 30.41 in 7.0 mi North 5.8 mph - N/A   Clear
3:15 AM 25.0 °F 15.5 °F 14.7 °F 65% 30.41 in 7.0 mi NNE 9.2 mph - N/A   Clear
3:35 AM 25.2 °F 16.5 °F 14.5 °F 64% 30.41 in 10.0 mi NNE 8.1 mph - N/A   Clear
3:55 AM 25.5 °F 16.9 °F 15.8 °F 67% 30.42 in 10.0 mi NE 8.1 mph - N/A   Clear
4:15 AM 24.4 °F 18.6 °F 15.4 °F 69% 30.42 in 10.0 mi NNE 4.6 mph - N/A   Clear
4:35 AM 23.4 °F - 14.9 °F 70% 30.42 in 10.0 mi Calm Calm - N/A   Clear
4:55 AM 19.9 °F 13.4 °F 12.6 °F 73% 30.43 in 10.0 mi West 4.6 mph - N/A   Clear
5:15 AM 19.4 °F - 12.7 °F 75% 30.42 in 10.0 mi Calm Calm - N/A   Clear
5:35 AM 18.7 °F 13.5 °F 11.8 °F 75% 30.41 in 10.0 mi WNW 3.5 mph - N/A   Clear
5:55 AM 18.1 °F 12.9 °F 12.0 °F 77% 30.40 in 10.0 mi West 3.5 mph - N/A   Clear
6:15 AM 18.3 °F - 11.7 °F 75% 30.41 in 10.0 mi Calm Calm - N/A   Clear
6:35 AM 19.4 °F - 12.6 °F 75% 30.39 in 10.0 mi Calm Calm - N/A   Clear
6:55 AM 19.4 °F - 12.4 °F 74% 30.40 in 10.0 mi Calm Calm - N/A   Clear
7:15 AM 16.9 °F - 11.1 °F 78% 30.40 in 10.0 mi Calm Calm - N/A   Clear
7:35 AM 18.7 °F - 12.9 °F 78% 30.39 in 10.0 mi Calm Calm - N/A   Clear
7:55 AM 15.8 °F 7.2 °F 11.1 °F 82% 30.38 in 10.0 mi SSE 5.8 mph - N/A   Clear
8:15 AM 17.1 °F 6.6 °F 12.4 °F 82% 30.37 in 10.0 mi SE 8.1 mph - N/A   Clear
8:35 AM 18.3 °F 10.2 °F 13.3 °F 81% 30.39 in 10.0 mi SSE 5.8 mph - N/A   Clear
8:55 AM 22.3 °F 14.9 °F 15.6 °F 76% 30.38 in 10.0 mi SSE 5.8 mph - N/A   Clear
9:15 AM 24.8 °F 16.9 °F 15.6 °F 68% 30.37 in 10.0 mi SE 6.9 mph - N/A   Clear
9:35 AM 25.9 °F 16.0 °F 15.6 °F 65% 30.37 in 10.0 mi SE 10.4 mph - N/A   Clear
9:55 AM 27.3 °F 16.6 °F 16.0 °F 62% 30.35 in 10.0 mi SSE 12.7 mph - N/A   Clear
10:15 AM 28.9 °F 18.2 °F 16.5 °F 60% 30.35 in 10.0 mi SSE 13.8 mph - N/A   Clear
10:35 AM 30.4 °F 20.0 °F 17.1 °F 58% 30.33 in 10.0 mi SSE 13.8 mph - N/A   Clear
10:55 AM 32.0 °F 21.2 °F 17.4 °F 55% 30.32 in 10.0 mi SSE 16.1 mph - N/A   Clear
11:15 AM 33.4 °F 23.1 °F 17.6 °F 52% 30.30 in 10.0 mi SSE 16.1 mph 19.6 mph N/A   Clear
11:35 AM 35.8 °F 25.7 °F 18.3 °F 49% 30.28 in 10.0 mi South 17.3 mph - N/A   Clear
11:55 AM 38.5 °F 28.6 °F 17.8 °F 43% 30.26 in 10.0 mi South 19.6 mph 23.0 mph N/A   Clear
12:15 PM 42.1 °F 33.6 °F 17.6 °F 37% 30.24 in 10.0 mi SSW 18.4 mph - N/A   Clear
12:35 PM 44.8 °F 36.6 °F 17.6 °F 34% 30.21 in 10.0 mi SSW 20.7 mph - N/A   Clear
12:55 PM 48.2 °F - 18.1 °F 30% 30.19 in 10.0 mi SSW 20.7 mph 25.3 mph N/A   Clear
1:15 PM 50.9 °F - 18.5 °F 28% 30.17 in 10.0 mi SW 20.7 mph 26.5 mph N/A   Clear
1:35 PM 54.7 °F - 18.5 °F 24% 30.14 in 10.0 mi SW 23.0 mph 26.5 mph N/A   Clear
1:55 PM 57.7 °F - 19.0 °F 22% 30.12 in 10.0 mi SW 23.0 mph 28.8 mph N/A   Clear
2:15 PM 60.1 °F - 18.3 °F 20% 30.11 in 10.0 mi WSW 21.9 mph - N/A   Clear
2:35 PM 61.2 °F - 17.1 °F 18% 30.10 in 10.0 mi WSW 21.9 mph 27.6 mph N/A   Clear
2:55 PM 61.7 °F - 17.1 °F 18% 30.08 in 10.0 mi WSW 20.7 mph 25.3 mph N/A   Clear
3:15 PM 62.4 °F - 16.9 °F 17% 30.07 in 10.0 mi WSW 15.0 mph 19.6 mph N/A   Clear
3:35 PM 63.1 °F - 16.2 °F 16% 30.06 in 10.0 mi WSW 13.8 mph - N/A   Clear
3:55 PM 63.7 °F - 15.3 °F 15% 30.05 in 10.0 mi WSW 18.4 mph - N/A   Clear
4:15 PM 63.9 °F - 14.2 °F 15% 30.05 in 10.0 mi WSW 15.0 mph - N/A   Clear
4:35 PM 63.9 °F - 14.7 °F 15% 30.05 in 10.0 mi WSW 13.8 mph - N/A   Clear
4:55 PM 63.5 °F - 15.1 °F 15% 30.05 in 10.0 mi WSW 10.4 mph - N/A   Clear
5:15 PM 61.9 °F - 15.1 °F 16% 30.05 in 10.0 mi WSW 8.1 mph - N/A   Clear
5:35 PM 59.0 °F - 15.1 °F 18% 30.05 in 10.0 mi SW 5.8 mph - N/A   Clear
5:55 PM 55.9 °F - 15.3 °F 20% 30.05 in 10.0 mi SW 4.6 mph - N/A   Clear
6:15 PM 56.8 °F - 13.8 °F 18% 30.05 in 10.0 mi SW 4.6 mph - N/A   Clear
6:35 PM 51.1 °F - 14.4 °F 23% 30.05 in 10.0 mi SW 3.5 mph - N/A   Clear
6:55 PM 49.3 °F - 14.2 °F 25% 30.05 in 10.0 mi Calm Calm - N/A   Clear
7:15 PM 47.7 °F - 13.3 °F 25% 30.07 in 10.0 mi North 11.5 mph - N/A   Clear
7:35 PM 42.6 °F 36.8 °F 16.5 °F 35% 30.08 in 10.0 mi NE 10.4 mph - N/A   Clear
7:55 PM 38.8 °F 32.1 °F 17.2 °F 42% 30.07 in 10.0 mi NE 10.4 mph - N/A   Clear
8:15 PM 37.8 °F 31.3 °F 17.1 °F 43% 30.07 in 10.0 mi ENE 9.2 mph - N/A   Clear
8:35 PM 35.1 °F 27.9 °F 16.7 °F 47% 30.07 in 10.0 mi ENE 9.2 mph - N/A   Clear
8:55 PM 34.2 °F 27.5 °F 16.7 °F 49% 30.07 in 10.0 mi East 8.1 mph - N/A   Clear
9:15 PM 33.6 °F 26.2 °F 16.5 °F 50% 30.06 in 10.0 mi East 9.2 mph - N/A   Clear
9:35 PM 33.1 °F 30.0 °F 16.2 °F 50% 30.06 in 10.0 mi East 3.5 mph - N/A   Clear
9:55 PM 31.6 °F 26.0 °F 15.1 °F 50% 30.06 in 10.0 mi East 5.8 mph - N/A   Clear
10:15 PM 31.6 °F 27.0 °F 15.8 °F 52% 30.08 in 10.0 mi ESE 4.6 mph - N/A   Clear
10:35 PM 30.4 °F 22.2 °F 15.8 °F 55% 30.08 in 10.0 mi ENE 9.2 mph - N/A   Clear
10:55 PM 31.1 °F 24.5 °F 16.0 °F 54% 30.09 in 10.0 mi East 6.9 mph - N/A   Clear
11:15 PM 28.9 °F 23.9 °F 15.6 °F 58% 30.10 in 10.0 mi East 4.6 mph - N/A   Clear
11:35 PM 30.7 °F 24.1 °F 16.5 °F 56% 30.10 in 10.0 mi East 6.9 mph - N/A   Clear
11:55 PM 29.1 °F - 14.7 °F 55% 30.10 in 10.0 mi Calm Calm - N/A   Clear